Location: Krakow
(50.0830°N, 19.9170°E)
Time: 09:50:59
(UTC+02:00)

Envisat - Visible Passes

Search period start: 24 September 2023 00:00
Search period end: 04 October 2023 00:00
Orbit: 763 x 764 km, 98.2° (Epoch: 23 September)

Date Brightness Start Highest point End Pass type
(mag) Time Alt. Az. Time Alt. Az. Time Alt. Az.
24 Sep 4.4 03:45:35 10° NNE 03:50:13 34° E 03:54:34 11° SSE visible
24 Sep 3.6 05:24:34 10° N 05:29:15 38° WNW 05:33:54 10° SW visible
25 Sep 5.4 03:09:17 10° NE 03:12:39 17° E 03:15:59 10° SE visible
25 Sep 2.9 04:47:07 10° NNE 04:52:12 75° WNW 04:56:58 12° SSW visible
26 Sep 3.6 04:09:57 10° NNE 04:14:57 55° E 04:19:14 14° S visible
26 Sep 4.1 05:49:31 10° N 05:53:38 25° WNW 05:57:45 10° WSW visible
27 Sep 4.8 03:33:11 10° NE 03:37:31 28° E 03:41:29 12° SSE visible
27 Sep 3.3 05:11:51 10° N 05:16:43 47° WNW 05:21:34 10° SW visible
28 Sep 5.7 02:57:19 10° NE 02:59:52 14° E 03:02:24 10° ESE visible
28 Sep 2.9 04:34:29 10° NNE 04:39:36 88° ESE 04:43:53 15° SSW visible
29 Sep 4.0 03:57:26 10° NNE 04:02:18 44° E 04:06:08 16° SSE visible
29 Sep 3.8 05:36:43 10° N 05:41:09 31° WNW 05:45:34 10° WSW visible
30 Sep 5.1 03:20:52 10° NE 03:24:47 22° E 03:28:22 11° SE visible
30 Sep 3.0 04:59:09 10° N 05:04:10 59° WNW 05:08:32 13° SSW visible
01 Oct 5.8 02:46:03 10° ENE 02:47:03 10° E 02:48:03 10° E visible
01 Oct 3.2 04:21:53 10° NNE 04:26:59 70° ESE 04:30:46 18° S visible
01 Oct 4.3 06:01:45 10° N 06:05:30 21° WNW 06:09:12 10° WSW visible
02 Oct 4.4 03:44:57 10° NNE 03:49:37 35° E 03:53:00 16° SSE visible
02 Oct 3.5 05:23:57 10° N 05:28:38 38° WNW 05:33:10 11° SW visible
03 Oct 5.4 03:08:39 10° NE 03:12:01 18° E 03:15:15 10° SE visible
03 Oct 2.9 04:46:29 10° NNE 04:51:35 75° WNW 04:55:24 18° SSW visible
